CAPE
0 0 0 0 0 0 0 0 0 0 0 0 0 0 0 353 583 605 710 728 714 762 783 667 595 686 753 827 898 906 784 795 793 653 520 503 463 498 377 364 321 288 497 490
0 0 0 0 0 0 0 0 0 0 0 0 0 0 0 33 274 295 434 654 791 669 700 669 648 718 781 816 872 938 957 853 889 739 615 615 549 605 510 470 474 339 480 630
0 0 0 0 0 0 0 0 0 0 0 0 0 0 0 0 53 88 288 362 587 568 690 703 714 733 797 797 812 888 926 924 883 764 631 633 684 596 677 531 494 410 534 563
0 0 0 0 0 0 0 0 0 0 0 0 0 0 0 0 0 20 88 266 495 491 544 690 743 733 769 817 796 821 823 874 928 804 752 694 638 570 546 542 473 415 577 524
0 0 0 0 0 0 0 0 0 0 0 0 0 0 0 0 0 0 0 176 376 528 523 589 654 765 755 804 827 792 756 845 912 937 916 732 592 562 517 531 489 470 483 553
0 0 0 0 0 0 0 0 0 0 0 0 0 0 0 0 0 0 0 25 321 478 421 290 209 503 692 843 886 865 754 855 929 926 924 790 681 571 459 500 490 435 423 465
0 0 0 0 0 0 0 0 0 0 0 0 0 0 0 263 188 165 9 0 348 447 525 536 508 504 588 651 932 980 842 853 843 938 869 811 726 670 533 486 585 525 454 379
0 0 0 0 0 0 0 0 0 0 0 0 0 0 23 207 289 719 739 596 647 693 696 764 807 839 837 747 635 1029 1019 815 761 843 838 829 740 696 625 543 601 583 523 393
0 0 0 0 0 0 0 0 0 0 0 0 0 0 195 92 310 757 796 603 545 566 708 863 640 326 397 743 815 866 1132 1060 840 861 846 826 873 852 752 543 531 556 477 403
0 0 0 0 0 0 0 0 0 0 0 0 0 0 0 111 36 41 469 739 484 263 143 202 0 14 984 875 855 1131 1362 1653 1470 1122 843 937 918 928 988 838 760 685 595 540
0 0 0 0 0 0 0 0 0 0 0 0 0 0 0 126 74 10 421 732 913 744 833 1094 1200 1162 613 950 1059 1245 1157 913 678 1100 465 984 1474 1212 1209 1198 953 1002 853 608
0 0 0 0 0 0 0 0 0 0 0 0 0 0 0 428 558 31 535 744 704 578 488 598 651 752 907 648 1317 1422 774 142 0 30 5 10 1705 1760 1560 1556 1287 1121 1065 941
0 0 0 0 0 0 0 0 0 0 0 0 0 0 2 216 656 274 609 285 364 347 303 252 239 317 706 707 629 533 91 0 0 14 24 68 4 272 1417 2019 1767 1646 1433 1226
0 0 0 0 0 0 0 0 0 0 0 0 0 0 47 231 541 377 22 119 13 7 0 0 0 0 68 177 385 468 295 138 98 243 596 635 1008 1011 596 903 1778 1881 1737 1596
0 0 0 0 0 0 0 0 0 0 0 0 0 0 362 547 522 278 192 111 0 0 0 0 0 0 0 0 4 37 62 115 167 143 49 224 990 1167 1041 926 1096 1403 1755 1525
0 0 0 0 0 0 0 0 0 0 0 0 20 255 190 188 215 104 69 0 0 0 0 0 0 0 0 0 0 0 0 0 0 0 0 0 18 573 553 429 415 999 1297 1136
0 0 0 0 0 0 0 0 0 0 0 0 0 0 0 0 0 0 0 0 0 0 0 0 0 0 0 0 0 0 0 0 0 0 0 0 0 0 0 9 108 267 411 536
0 0 0 0 0 0 0 0 0 0 0 0 0 0 0 0 0 0 0 0 0 0 0 0 0 0 0 0 0 0 0 0 0 0 0 0 0 4 0 0 0 4 58 101
0 0 0 0 0 0 0 0 0 0 0 0 0 0 0 0 0 0 0 0 0 0 0 0 0 0 0 0 0 0 0 0 0 0 0 0 0 4 150 5 0 0 0 0
0 0 0 0 0 0 0 0 0 0 0 0 0 0 0 0 0 0 0 0 0 0 0 0 0 0 0 0 0 0 0 0 0 0 0 0 0 0 0 130 17 0 0 0
0 0 0 0 0 0 0 0 0 0 0 0 0 0 0 0 0 0 0 0 0 0 0 0 0 0 0 0 0 0 0 0 0 0 0 0 0 0 0 0 149 20 0 0
0 0 0 0 0 0 0 0 0 0 0 0 0 0 0 0 0 0 0 0 0 0 0 0 0 0 0 0 0 0 0 0 0 0 0 0 0 0 0 0 18 74 34 0
0 0 0 0 0 0 0 0 0 0 0 0 0 0 0 0 0 0 0 0 0 0 0 0 0 0 0 0 0 0 0 0 0 0 0 0 0 0 0 0 0 0 0 3
0 0 0 0 0 0 0 0 0 0 0 0 0 0 0 0 0 0 0 0 0 0 0 0 0 0 0 0 0 0 0 0 0 0 0 0 0 0 0 0 0 0 16 33
0 0 0 0 0 0 0 0 0 0 0 0 0 0 0 0 0 0 0 0 0 0 0 0 0 0 0 0 0 0 0 0 0 0 0 0 0 0 0 0 3 5 18 79
0 0 0 0 0 0 0 0 0 0 0 0 0 0 0 0 0 0 0 0 0 0 0 0 0 0 0 0 2 0 0 0 0 0 0 0 0 0 0 0 0 0 2 3
CIN
0 0 0 0 0 0 0 0 0 0 0 0 0 0 0 -140 -185 -178 -188 -192 -225 -208 -197 -235 -216 -185 -189 -173 -147 -149 -150 -143 -129 -101 -102 -91 -91 -96 -97 -103 -77 -78 -72 -73
0 0 0 0 0 0 0 0 0 0 0 0 0 0 0 -164 -136 -160 -155 -188 -185 -225 -216 -241 -231 -220 -197 -171 -160 -159 -145 -144 -126 -104 -100 -92 -94 -81 -72 -73 -69 -76 -72 -76
0 0 0 0 0 0 0 0 0 0 0 0 0 0 0 0 -133 -201 -182 -176 -174 -205 -193 -238 -257 -253 -199 -191 -179 -169 -162 -146 -123 -111 -126 -108 -84 -70 -51 -56 -55 -65 -66 -73
0 0 0 0 0 0 0 0 0 0 0 0 0 0 0 0 0 -132 -149 -185 -175 -209 -227 -214 -252 -262 -217 -185 -206 -194 -184 -161 -147 -130 -122 -116 -109 -68 -75 -53 -58 -55 -53 -60
0 0 0 0 0 0 0 0 0 0 0 0 0 0 0 0 0 0 0 -147 -172 -190 -193 -181 -204 -238 -223 -228 -187 -212 -209 -172 -153 -130 -118 -131 -135 -104 -97 -64 -52 -52 -47 -51
0 0 0 0 0 0 0 0 0 0 0 0 0 0 0 0 0 0 0 -133 -204 -209 -259 -283 -336 -313 -284 -260 -238 -233 -231 -204 -186 -168 -166 -152 -128 -114 -115 -97 -67 -59 -51 -51
0 0 0 0 0 0 0 0 0 0 0 0 0 0 0 -265 -265 -240 -100 0 -312 -269 -261 -265 -298 -295 -279 -265 -250 -255 -253 -209 -214 -185 -183 -154 -137 -128 -111 -98 -74 -72 -66 -67
0 0 0 0 0 0 0 0 0 0 0 0 0 0 -200 -277 -367 -374 -351 -359 -348 -339 -318 -321 -275 -272 -258 -236 -265 -241 -256 -242 -247 -209 -195 -183 -152 -151 -147 -126 -100 -78 -86 -84
0 0 0 0 0 0 0 0 0 0 0 0 0 0 -169 -238 -248 -288 -289 -309 -331 -299 -309 -252 -229 -314 -279 -272 -233 -230 -219 -247 -246 -214 -176 -184 -166 -128 -152 -158 -132 -112 -93 -94
0 -3 0 0 0 0 0 0 0 0 0 0 0 0 0 -133 -189 -265 -287 -303 -357 -360 -363 -351 -60 -195 -298 -372 -276 -192 -121 -94 -106 -102 -156 -165 -161 -163 -137 -138 -127 -128 -117 -86
0 0 0 0 0 0 0 0 0 0 0 0 0 0 0 -170 -205 -280 -292 -331 -339 -358 -343 -309 -280 -285 -433 -329 -281 -220 -208 -211 -252 -176 -363 -24 -88 -137 -137 -135 -126 -101 -117 -120
0 0 0 0 0 0 0 0 0 0 0 0 0 0 0 -225 -265 -381 -305 -290 -293 -324 -329 -281 -243 -218 -255 -335 -241 -188 -251 -130 0 -400 -259 -196 -25 -46 -80 -109 -140 -104 -101 -124
0 0 0 0 0 0 0 0 0 0 0 0 0 0 -95 -316 -255 -362 -276 -318 -295 -307 -311 -295 -279 -296 -204 -219 -274 -332 -401 0 0 -484 -517 -278 -292 -197 -63 -62 -101 -93 -93 -101
0 0 0 0 0 0 0 0 0 0 0 0 0 0 -299 -277 -219 -272 -399 -341 -185 -202 0 0 0 0 -318 -263 -219 -223 -254 -304 -307 -236 -122 -117 -63 -131 -232 -174 -117 -87 -79 -84
0 0 0 0 0 0 0 0 0 0 0 0 0 0 -224 -193 -184 -227 -245 -281 0 0 0 0 0 0 0 0 -68 -268 -202 -182 -180 -202 -286 -229 -123 -118 -171 -208 -172 -110 -41 -71
0 0 0 0 0 0 0 0 0 0 0 0 -115 -190 -251 -255 -231 -231 -228 0 0 0 0 0 0 0 0 0 0 0 0 0 0 0 0 0 -373 -158 -202 -261 -231 -140 -52 -15
0 0 0 0 0 0 0 0 0 0 0 0 0 0 0 0 0 0 0 0 0 0 0 0 0 0 0 0 0 0 0 0 0 0 0 0 0 0 0 -163 -175 -222 -72 -58
0 0 0 0 0 0 0 0 0 0 0 0 0 0 0 0 0 0 0 0 0 0 0 0 0 0 0 0 0 0 0 0 0 0 0 0 0 -66 0 0 0 -131 -180 -160
0 0 0 0 0 0 0 0 0 0 0 0 0 0 0 0 0 0 0 0 0 0 0 0 0 0 0 0 0 0 0 0 0 0 0 0 0 -12 -62 -31 0 0 0 0
0 0 0 0 0 0 0 0 0 0 0 0 0 0 0 0 0 0 0 0 0 0 0 0 0 0 0 0 0 0 0 0 0 0 0 0 0 0 0 -59 -118 0 0 0
0 0 0 0 0 0 0 0 0 0 0 0 0 0 0 0 0 0 0 0 0 0 0 0 0 0 0 0 0 0 0 0 0 0 0 0 0 0 0 0 -81 -149 0 0
0 0 0 0 0 0 0 0 0 0 0 0 0 0 0 0 0 0 0 0 0 0 0 0 0 0 0 0 0 0 0 0 0 0 0 0 0 0 0 0 -202 -114 -141 0
0 0 0 0 0 0 0 0 0 0 0 0 0 0 0 0 0 0 0 0 0 0 0 0 0 0 0 0 0 0 0 0 0 0 0 0 0 0 0 0 0 0 0 -42
0 0 0 0 0 0 0 0 0 0 0 0 0 0 0 0 0 0 0 0 0 0 0 0 0 0 0 0 0 0 0 0 0 0 0 0 0 0 0 0 0 -63 -257 -144
0 0 0 0 0 0 0 0 0 0 0 0 0 0 0 0 0 0 0 0 0 0 0 0 0 0 0 0 0 0 0 0 0 0 0 0 0 0 0 0 -506 -444 -307 -133
0 0 0 0 0 0 0 0 0 0 0 0 0 0 0 0 0 0 0 0 0 0 0 0 0 0 0 0 -28 0 0 0 0 0 0 0 0 0 0 0 0 0 -286 -364
Wind_Speed
13 13 17 20 18 19 21 21 21 19 19 17 17 16 15 16 15 16 17 19 18 18 19 19 19 18 16 15 16 18 18 17 14 12 15 14 13 12 15 17 17 17 17 15
14 22 24 22 20 21 21 19 20 20 19 18 18 16 12 14 18 20 18 17 18 17 16 17 18 18 17 16 17 17 19 16 16 13 13 8 8 10 13 16 17 17 16 16
18 22 17 23 23 23 22 21 18 21 18 20 19 20 17 14 19 20 20 16 15 17 16 16 16 17 17 17 18 18 17 17 15 13 9 4 6 11 5 9 15 17 19 15
21 23 21 23 23 13 17 15 17 16 17 19 18 19 17 14 15 17 20 17 16 15 15 16 17 18 18 19 17 17 17 15 14 13 12 13 12 9 9 8 12 16 16 17
22 24 21 20 16 10 18 19 18 17 17 19 18 17 14 20 9 17 18 16 15 16 16 18 19 18 18 16 17 16 15 16 15 14 15 16 13 10 4 7 10 8 14 12
26 25 24 21 21 14 17 17 17 16 18 17 18 13 18 16 17 16 12 14 15 15 6 11 16 20 14 13 14 14 15 16 16 15 16 17 16 13 10 6 7 10 11 9
20 23 20 19 16 16 14 15 16 16 14 18 19 15 17 16 16 14 15 13 11 13 13 9 9 9 7 13 13 13 13 15 16 16 15 16 16 13 12 10 8 8 12 14
16 13 14 13 10 13 14 16 17 17 19 18 14 15 13 15 13 17 19 17 15 14 15 10 11 10 19 12 12 12 11 13 14 16 15 14 17 17 14 11 5 7 8 13
12 14 13 13 13 16 16 19 16 15 18 15 12 14 15 15 17 18 20 19 19 17 14 11 7 16 28 20 7 11 10 8 7 8 14 11 9 23 22 17 9 5 7 6
17 15 14 14 11 14 15 15 20 17 16 16 12 10 9 9 12 15 18 19 19 18 17 15 17 26 30 19 3 5 19 23 15 7 11 9 11 14 16 14 21 13 10 8
13 16 17 15 15 15 16 16 16 14 14 15 14 13 9 8 9 11 13 14 15 16 18 20 21 22 20 19 9 5 6 14 24 32 30 21 12 16 14 14 12 22 10 8
18 18 21 15 16 16 15 16 17 17 18 17 15 14 11 7 11 10 12 14 15 17 18 20 20 20 22 21 14 10 6 2 7 14 23 39 33 13 13 12 14 10 12 8
16 19 23 22 21 20 19 21 18 16 17 18 17 15 12 10 11 9 10 13 14 16 16 18 19 21 21 23 21 20 16 8 16 18 18 11 16 28 25 12 15 12 14 13
17 20 22 24 23 23 24 24 23 20 20 17 17 14 9 8 7 8 10 11 12 14 17 18 19 21 21 21 22 21 17 13 19 25 19 16 21 37 15 17 17 15 13 15
19 20 18 18 20 21 24 27 26 23 20 18 16 13 9 7 7 9 10 13 14 17 19 20 20 20 20 20 21 20 19 18 18 20 25 30 30 32 30 28 27 30 28 16
19 21 19 22 21 24 22 26 21 17 16 18 10 11 10 9 11 13 14 15 19 21 22 22 21 22 22 24 24 23 25 24 23 26 29 31 32 31 32 32 33 36 49 51
19 17 22 25 24 25 21 25 19 15 16 9 11 13 8 10 14 15 17 19 22 25 28 30 31 31 29 27 26 29 27 27 29 30 32 33 33 33 35 36 35 35 35 38
19 17 18 21 22 24 17 14 15 14 15 13 11 10 12 11 13 15 18 21 24 27 30 32 34 35 35 34 34 31 29 29 30 32 35 35 35 35 33 34 37 36 37 39
14 15 19 20 19 17 15 17 17 16 17 14 12 14 15 11 17 20 21 23 25 28 30 33 34 36 36 36 35 36 37 36 34 34 33 34 35 34 33 34 35 35 37 39
12 14 16 18 20 20 16 15 16 13 20 14 15 16 18 18 26 27 26 27 28 30 32 35 36 35 36 38 36 38 38 38 39 39 38 36 37 36 36 36 34 32 34 36
15 17 15 17 20 21 16 17 15 21 23 11 15 17 19 23 24 26 29 33 34 36 38 38 39 37 37 39 36 34 34 35 37 40 42 38 36 39 39 40 35 35 35 34
16 17 18 19 22 24 16 18 20 18 16 16 18 20 24 26 28 30 33 36 38 40 41 41 43 42 40 38 35 36 34 37 42 45 42 43 41 39 39 39 38 35 35 37
19 17 19 20 20 18 19 17 18 18 18 20 23 24 27 27 30 35 35 34 35 36 36 40 45 46 43 40 37 35 37 41 43 44 47 46 44 42 37 36 39 37 35 36
18 17 19 17 17 16 17 18 19 20 23 25 27 29 29 31 33 32 30 32 33 33 34 38 40 42 43 40 36 36 42 42 41 46 46 45 46 47 44 36 35 32 34 35
18 19 18 19 16 18 18 19 20 23 25 28 29 29 30 32 33 31 33 33 32 32 34 36 38 40 38 37 38 44 43 41 43 46 45 44 43 43 43 41 36 32 29 30
17 17 19 20 14 17 20 21 21 28 31 31 29 29 30 31 33 33 33 34 36 37 38 39 39 39 40 40 39 38 39 40 43 45 43 41 39 37 35 37 40 36 32 33
Wind_Direction
267 258 251 236 255 259 260 253 239 281 213 153 176 189 145 146 147 153 155 155 151 154 169 159 159 155 146 146 149 155 152 149 142 138 149 151 148 143 154 164 161 154 152 148
259 236 215 230 262 262 260 234 284 271 247 157 198 202 173 152 169 168 160 159 160 154 150 146 153 151 151 151 154 155 159 154 151 145 148 125 122 131 146 152 159 157 155 157
252 230 277 256 254 246 238 263 280 255 264 226 234 239 207 190 172 169 174 163 151 155 147 139 142 146 150 154 160 160 160 159 155 149 131 70 99 327 44 127 160 159 166 159
260 253 265 257 256 294 276 288 277 270 267 254 263 243 225 193 146 158 171 164 156 149 145 144 141 146 152 158 153 158 160 157 155 151 152 154 149 136 138 135 146 160 158 165
256 258 272 274 286 337 278 273 263 271 274 271 269 287 212 277 58 164 169 165 159 158 148 146 150 151 154 146 153 153 152 159 157 159 162 165 163 154 68 134 150 151 168 160
247 260 266 258 269 297 293 289 286 284 279 256 203 148 313 290 275 301 137 159 158 152 99 319 264 206 154 145 148 147 153 164 161 162 166 171 172 167 156 143 151 155 160 158
272 262 274 269 286 284 290 287 264 264 275 261 271 327 321 330 332 349 25 48 88 116 127 101 47 56 83 163 164 159 158 165 166 168 170 177 180 172 172 163 161 162 170 174
283 276 274 291 300 288 280 279 270 267 256 260 304 324 39 9 342 13 41 41 58 82 110 97 99 45 308 193 188 179 173 171 168 173 179 177 187 190 184 177 164 173 177 182
283 278 293 304 298 282 284 272 296 305 297 310 345 17 28 38 40 39 41 46 59 57 64 84 26 334 290 249 206 202 198 186 176 180 187 184 182 208 206 193 183 189 189 202
278 286 309 314 315 315 300 305 280 303 304 309 337 6 26 44 53 55 45 52 52 45 41 25 3 327 289 323 22 349 304 299 317 227 200 200 199 200 205 201 203 195 196 202
309 300 291 307 299 301 313 311 311 320 327 319 319 328 16 61 49 44 40 39 44 34 24 9 354 353 353 359 1 27 3 340 313 307 312 277 214 214 213 212 216 210 207 218
306 304 277 303 285 292 315 318 327 309 305 319 323 326 357 37 3 14 18 24 24 21 20 17 16 20 14 9 5 355 330 145 287 341 340 260 247 227 227 226 220 247 226 243
323 295 274 280 279 291 299 304 320 326 321 318 315 323 334 343 355 10 18 9 17 21 23 17 9 8 5 5 1 353 337 311 324 326 329 248 303 305 296 262 227 234 233 247
325 304 293 284 286 290 291 296 304 311 309 314 317 325 324 333 347 358 358 5 6 4 2 1 3 2 0 4 8 7 5 338 318 318 324 333 325 289 244 283 284 238 249 234
316 306 309 304 305 304 300 298 301 305 309 306 313 315 320 328 336 343 350 340 340 341 343 347 348 351 354 353 355 358 354 347 338 328 323 321 321 313 308 298 289 284 280 259
316 306 309 306 310 308 309 308 313 311 315 318 322 319 324 327 329 328 331 332 330 332 334 338 341 341 340 340 338 337 332 327 326 321 319 318 316 314 309 305 304 292 274 258
310 315 308 306 310 311 309 313 319 324 322 321 310 317 329 327 325 324 326 330 329 326 324 323 325 326 328 331 330 326 327 326 321 318 316 313 312 310 308 303 306 303 297 282
307 314 317 314 319 307 322 345 351 346 339 339 343 335 327 331 335 335 333 330 328 326 324 323 322 321 322 323 321 322 323 321 319 316 312 310 309 306 306 305 303 304 301 297
309 313 314 315 318 322 321 323 323 325 322 330 336 331 328 328 321 320 327 328 327 326 324 322 321 319 319 318 319 317 314 314 315 313 313 310 308 305 301 302 302 302 302 298
317 317 316 317 314 313 328 331 329 330 310 321 323 321 321 317 308 311 320 322 322 322 322 319 319 318 317 316 315 312 311 310 309 308 308 306 305 301 300 297 297 299 298 297
306 309 308 313 312 317 323 327 332 311 315 323 323 321 319 315 315 319 319 317 317 316 316 316 315 314 316 316 315 311 311 309 310 307 303 303 304 299 295 292 293 293 293 294
310 307 308 312 311 309 325 326 318 324 327 323 322 323 320 320 319 319 318 318 317 317 316 315 314 312 312 313 312 310 308 308 304 302 301 295 298 299 296 293 290 290 289 288
311 316 313 315 316 327 329 331 330 327 326 325 324 323 322 322 321 320 319 321 323 323 323 318 313 309 309 310 310 309 309 307 303 297 292 291 294 296 300 297 291 289 288 285
321 328 319 321 327 331 333 334 335 332 329 326 323 323 324 321 322 323 324 324 326 327 326 324 319 315 311 311 310 309 307 306 303 294 290 291 290 287 291 296 295 294 289 284
317 321 320 320 322 324 328 332 333 332 329 327 326 326 324 323 323 323 322 323 325 327 327 326 322 318 315 312 308 304 305 305 299 295 294 292 292 293 290 290 292 293 292 288
322 323 320 318 329 327 328 333 334 328 327 328 328 327 326 324 322 322 323 324 324 325 325 324 324 322 318 313 309 308 306 304 301 296 296 296 295 295 295 293 289 290 289 289